Regional Weather Roundup
Issued by NWS

Home | Current Version | Previous Version | Graphics & Text | Print | Product List | Glossary On
Versions: 1 2 3 4 5 6 7 8 9 10 11 12 13 14 15 16 17 18 19 20 21 22 23 24 25 26 27
000
ASUS45 KBOU 171507
RWRCO

WEATHER ROUNDUP FOR COLORADO
NATIONAL WEATHER SERVICE DENVER/BOULDER CO
900 AM MDT THU AUG 17 2017

NOTE: "FAIR" INDICATES FEW OR NO CLOUDS BELOW 12000 FEET WITH NO
SIGNIFICANT WEATHER AND/OR OBSTRUCTIONS TO VISIBILITY.

COZ001>005-013-030-031-171600-
...NORTHWEST COLORADO...

CITY           SKY/WX    TMP DP  RH WIND       PRES   REMARKS
CRAIG          FAIR      61  41  47 NE3       30.29R
HAYDEN         FAIR      58  40  51 E9        30.32S
MEEKER         FAIR      61  38  42 VRB3      30.30R
RABBIT EARS PA FAIR      50  34  53 CALM      30.53R
STEAMBOAT SPGS FAIR      55  41  59 CALM      30.32S
WALDEN         PTSUNNY   48  41  76 CALM      30.39R
$$

COZ006>008-011-171600-
...WEST CENTRAL VALLEYS...

CITY           SKY/WX    TMP DP  RH WIND       PRES   REMARKS
GRAND JUNCTION FAIR      69  39  33 SE13      30.20R
MONTROSE       FAIR      64  38  38 S5        30.27S
EAGLE          FAIR      55  38  52 CALM      30.36R
RIFLE          FAIR      62  40  44 SE6       30.26S
DELTA          FAIR      65  38  36 SE5       30.25R
NUCLA          FAIR      64  30  27 CALM      30.31S
$$

COZ017>023-064>068-171600-
...SOUTHWEST COLORADO...

CITY           SKY/WX    TMP DP  RH WIND       PRES   REMARKS
DURANGO        FAIR      60  32  34 CALM      30.33R
CORTEZ         FAIR      64  36  35 CALM      30.28R
PAGOSA SPRINGS FAIR      59  29  31 CALM      30.39S
TELLURIDE      FAIR      57  30  36 CALM      30.49S
WOLF CREEK PAS PTSUNNY   46  27  46 SW3       30.70S
$$

COZ009-010-012-014-032>034-037-058>063-171600-
...CENTRAL COLORADO...

CITY           SKY/WX    TMP DP  RH WIND       PRES   REMARKS
ASPEN          FAIR      58  36  43 CALM      30.37S
BUENA VISTA    FAIR      56  40  55 CALM      30.41S
COPPER MTN     FAIR      50  28  43 NW8G17    30.62S
BERTHOUD PASS  FAIR      41  36  81 NW18G30   30.64R
COTTONWOOD PAS FAIR      55  39  54 E3        30.51R
GUNNISON       FAIR      49  34  56 CALM      30.43F
KREMMLING      FAIR      55  43  62 CALM      30.40S
LEADVILLE      FAIR      48  35  60 W3        30.49S
MONARCH PASS   FAIR      45  27  49 SW10      30.74R
SALIDA         FAIR      56  42  57 CALM      30.46F
SUNLIGHT       CLOUDY    50  32  50 CALM      30.59R
WILKERSON PASS FAIR      46  34  61 W6        30.61R
$$

COZ069>075-171600-
...SAN LUIS VALLEY/SANGRE DE CRISTO MOUNTAINS...

CITY           SKY/WX    TMP DP  RH WIND       PRES   REMARKS
ALAMOSA        FAIR      54  41  61 SW3       30.38R
DEL NORTE      FAIR      59  35  40 W8        30.41R
LA VETA PASS   NOT AVBL
SAGUACHE       FAIR      59  34  38 NW8       30.40S
$$

COZ035-036-038>040-171600-
...NORTHERN COLORADO FRONT RANGE...

CITY           SKY/WX    TMP DP  RH WIND       PRES   REMARKS
DENVER INTL AP FAIR      73  47  39 SW15      30.16S
DMNS CITY PARK   N/A     69  48  47 SE6       30.18R
AURORA         MOSUNNY   69  49  49 SW12      30.19S
FRONT RANGE AP FAIR      73  48  40 SW14      30.18S
ERIE MUNI ARPT FAIR      67  47  49 CALM      30.20S
BOULDER MUN AP FAIR      64  45  48 CALM      30.16S
CENTENNIAL     FAIR      70  47  43 SW16      30.20S
BROOMFIELD     PTSUNNY   66  46  48 CALM      30.19S
FORT COLLINS   FAIR      63  51  65 S5        30.16S
LONGMONT       FAIR      67  51  56 CALM      30.17S
$$

COZ041-046-047-076>085-087-088-171600-
...PIKES PEAK/PALMER DIVIDE AND SOUTHERN FOOTHILLS...

CITY           SKY/WX    TMP DP  RH WIND       PRES   REMARKS
COLO. SPRINGS  FAIR      68  49  50 SW3       30.26F
A. F. ACADEMY  FAIR      64  51  63 CALM      30.27S
SCHRIEVER AFB  FAIR      65  47  50 SW8       30.27S
CHEYENNE MTN   PTSUNNY   63  48  57 CALM      30.24S
ELLICOTT       FAIR     N/A N/A N/A SW8       30.25S
FALCON         FAIR      66  46  48 S9G16     30.31S
FORT CARSON    FAIR      64  52  64 N5        30.23F
LIMON          FAIR      68  51  54 S9G18     30.21S
MONUMENT HILL  FAIR      63  48  59 SW8       30.31S
CANON CITY     SUNNY     72  52  49 MISG      30.21F
WALSENBURG     FAIR      70  48  46 CALM      30.27S
TRINIDAD       FAIR      70  51  51 W10       30.25R
$$

COZ042>045-048>051-090-091-171600-
...NORTHEAST COLORADO...

CITY           SKY/WX    TMP DP  RH WIND       PRES   REMARKS
GREELEY ARPT   FAIR      62  54  74 CALM      30.15S
AKRON          FAIR      72  49  44 SW15      30.14S
BURLINGTON     PTSUNNY   66  59  78 SW9       30.17R
WRAY           NOT AVBL
YUMA           FAIR      68  52  56 S15       30.13S
STERLING       FAIR      64  55  72 SW6       30.10S
HOLYOKE        FAIR      73  61  64 S13       30.11F
FORT MORGAN    FAIR      66  51  59 S6        30.14S
$$

COZ086-089-092>099-171600-
...SOUTHEAST COLORADO...

CITY           SKY/WX    TMP DP  RH WIND       PRES   REMARKS
PUEBLO         FAIR      71  51  49 W5        30.18S
LA JUNTA       FAIR      71  54  54 MISG      30.17F
LAMAR          FAIR      71  59  65 SE8       30.15S
SPRINGFIELD      N/A     71  59  65 S13       30.19S
$$




USA.gov is the U.S. government's official web portal to all federal, state and local government web resources and services.